QPF
0.00 0.00 0.00 0.00 0.00 0.00 0.00 0.00 0.00 0.00 0.00 0.00 0.00 0.00 0.00 0.00 0.00 0.00 0.00 0.00 0.00 0.00 0.00 0.00 0.00 0.00 0.00 0.00 0.00 0.00 0.00 0.00 0.00 0.00 0.00 0.00 0.00 0.00 0.00 0.00 0.00 0.00 0.00
0.00 0.00 0.00 0.00 0.00 0.00 0.00 0.00 0.00 0.00 0.01 0.00 0.00 0.00 0.00 0.00 0.00 0.00 0.00 0.00 0.00 0.00 0.00 0.00 0.00 0.00 0.00 0.00 0.00 0.00 0.00 0.00 0.00 0.00 0.00 0.00 0.00 0.00 0.00 0.00 0.00 0.00 0.00
0.00 0.00 0.00 0.00 0.00 0.00 0.00 0.00 0.00 0.00 0.01 0.00 0.00 0.00 0.00 0.01 0.01 0.00 0.00 0.00 0.00 0.00 0.00 0.00 0.00 0.00 0.00 0.00 0.00 0.00 0.00 0.00 0.00 0.00 0.00 0.03 0.05 0.02 0.00 0.00 0.00 0.00 0.00
0.00 0.00 0.00 0.00 0.00 0.00 0.00 0.00 0.00 0.00 0.01 0.00 0.00 0.00 0.00 0.00 0.00 0.00 0.00 0.00 0.00 0.00 0.00 0.00 0.00 0.00 0.00 0.00 0.00 0.00 0.00 0.00 0.00 0.00 0.01 0.02 0.03 0.04 0.02 0.00 0.00 0.00 0.00
0.00 0.00 0.00 0.00 0.00 0.00 0.00 0.00 0.00 0.00 0.01 0.01 0.00 0.00 0.00 0.00 0.00 0.00 0.00 0.00 0.00 0.00 0.00 0.01 0.01 0.00 0.00 0.00 0.01 0.01 0.02 0.02 0.03 0.01 0.00 0.00 0.00 0.00 0.00 0.00 0.00 0.00 0.00
0.00 0.00 0.00 0.00 0.00 0.00 0.00 0.00 0.00 0.00 0.00 0.01 0.00 0.00 0.00 0.00 0.00 0.00 0.00 0.00 0.00 0.00 0.00 0.00 0.00 0.04 0.02 0.04 0.01 0.04 0.02 0.04 0.02 0.01 0.00 0.00 0.00 0.00 0.00 0.00 0.00 0.02 0.00
0.00 0.00 0.00 0.00 0.00 0.00 0.00 0.00 0.00 0.00 0.00 0.00 0.01 0.00 0.00 0.00 0.00 0.00 0.00 0.00 0.00 0.00 0.00 0.00 0.01 0.03 0.05 0.05 0.02 0.01 0.02 0.02 0.01 0.00 0.00 0.00 0.00 0.00 0.00 0.00 0.00 0.01 0.02
0.00 0.00 0.00 0.00 0.00 0.00 0.00 0.00 0.00 0.00 0.00 0.00 0.00 0.01 0.00 0.00 0.00 0.00 0.00 0.00 0.00 0.00 0.00 0.02 0.03 0.03 0.03 0.02 0.00 0.00 0.00 0.00 0.00 0.00 0.00 0.00 0.00 0.00 0.00 0.00 0.01 0.00 0.00
0.00 0.00 0.00 0.00 0.00 0.00 0.00 0.00 0.00 0.00 0.00 0.00 0.00 0.00 0.01 0.00 0.00 0.00 0.00 0.00 0.00 0.00 0.00 0.01 0.03 0.05 0.02 0.00 0.00 0.00 0.00 0.00 0.00 0.00 0.02 0.04 0.01 0.01 0.01 0.01 0.01 0.02 0.00
0.00 0.00 0.00 0.00 0.00 0.00 0.00 0.00 0.00 0.00 0.00 0.00 0.00 0.00 0.00 0.00 0.00 0.00 0.00 0.00 0.00 0.00 0.00 0.00 0.02 0.03 0.06 0.02 0.00 0.00 0.01 0.01 0.01 0.01 0.03 0.06 0.04 0.10 0.07 0.08 0.06 0.07 0.04
0.00 0.00 0.00 0.00 0.00 0.00 0.00 0.00 0.00 0.00 0.00 0.00 0.00 0.00 0.00 0.00 0.00 0.00 0.00 0.00 0.00 0.00 0.00 0.00 0.00 0.02 0.03 0.05 0.03 0.00 0.01 0.01 0.01 0.06 0.06 0.03 0.05 0.09 0.04 0.10 0.12 0.06 0.03
0.00 0.00 0.00 0.00 0.00 0.00 0.00 0.00 0.00 0.00 0.00 0.00 0.00 0.00 0.00 0.00 0.00 0.00 0.00 0.00 0.00 0.00 0.00 0.00 0.00 0.00 0.01 0.03 0.04 0.03 0.02 0.02 0.02 0.02 0.04 0.01 0.03 0.05 0.02 0.04 0.02 0.00 0.00
0.00 0.00 0.00 0.00 0.00 0.00 0.00 0.00 0.00 0.00 0.00 0.00 0.00 0.00 0.00 0.00 0.00 0.00 0.00 0.00 0.00 0.00 0.00 0.00 0.00 0.00 0.00 0.00 0.00 0.00 0.00 0.01 0.01 0.01 0.01 0.00 0.02 0.00 0.01 0.01 0.01 0.00 0.00
0.00 0.00 0.00 0.00 0.00 0.00 0.00 0.00 0.00 0.00 0.00 0.00 0.00 0.00 0.00 0.00 0.00 0.00 0.00 0.01 0.00 0.00 0.00 0.00 0.00 0.00 0.00 0.00 0.00 0.00 0.00 0.00 0.00 0.00 0.01 0.00 0.01 0.00 0.00 0.00 0.01 0.01 0.01
0.00 0.00 0.00 0.00 0.00 0.00 0.00 0.00 0.00 0.00 0.00 0.00 0.00 0.00 0.00 0.00 0.00 0.00 0.00 0.00 0.00 0.00 0.00 0.00 0.00 0.00 0.00 0.00 0.00 0.00 0.00 0.00 0.00 0.00 0.01 0.00 0.00 0.01 0.01 0.01 0.01 0.01 0.00
0.00 0.00 0.00 0.00 0.00 0.00 0.00 0.00 0.00 0.00 0.00 0.00 0.00 0.00 0.00 0.00 0.00 0.00 0.00 0.00 0.00 0.00 0.00 0.00 0.00 0.00 0.00 0.00 0.00 0.00 0.00 0.01 0.00 0.00 0.00 0.00 0.00 0.01 0.01 0.01 0.01 0.01 0.00
0.00 0.00 0.00 0.00 0.00 0.00 0.00 0.00 0.00 0.00 0.00 0.00 0.00 0.00 0.00 0.00 0.00 0.00 0.00 0.00 0.00 0.00 0.00 0.00 0.00 0.00 0.01 0.00 0.00 0.00 0.00 0.00 0.01 0.01 0.01 0.01 0.00 0.00 0.00 0.01 0.01 0.00 0.00
0.00 0.00 0.00 0.00 0.00 0.00 0.00 0.00 0.00 0.00 0.00 0.00 0.00 0.00 0.00 0.00 0.00 0.00 0.00 0.00 0.00 0.00 0.00 0.00 0.00 0.00 0.00 0.00 0.00 0.00 0.01 0.01 0.01 0.01 0.00 0.00 0.00 0.00 0.00 0.00 0.00 0.00 0.00
0.00 0.00 0.00 0.00 0.00 0.00 0.00 0.00 0.00 0.00 0.00 0.00 0.00 0.00 0.00 0.00 0.00 0.00 0.00 0.00 0.00 0.00 0.00 0.00 0.00 0.00 0.00 0.00 0.01 0.01 0.01 0.01 0.01 0.00 0.00 0.00 0.00 0.00 0.00 0.00 0.00 0.00 0.00
0.00 0.00 0.00 0.00 0.00 0.00 0.00 0.00 0.00 0.00 0.00 0.00 0.00 0.00 0.00 0.00 0.00 0.00 0.00 0.00 0.00 0.00 0.00 0.00 0.00 0.00 0.00 0.00 0.00 0.01 0.00 0.01 0.00 0.00 0.00 0.00 0.00 0.00 0.00 0.00 0.00 0.00 0.00
0.00 0.00 0.00 0.00 0.00 0.00 0.00 0.00 0.00 0.00 0.00 0.00 0.00 0.00 0.00 0.00 0.00 0.00 0.00 0.00 0.00 0.01 0.02 0.01 0.00 0.00 0.00 0.00 0.00 0.00 0.00 0.00 0.00 0.00 0.00 0.00 0.00 0.00 0.00 0.00 0.00 0.00 0.00
0.00 0.00 0.00 0.00 0.00 0.00 0.00 0.00 0.00 0.00 0.00 0.00 0.01 0.01 0.00 0.00 0.00 0.00 0.00 0.01 0.03 0.05 0.03 0.01 0.01 0.00 0.00 0.00 0.00 0.00 0.00 0.00 0.00 0.00 0.00 0.00 0.00 0.00 0.00 0.00 0.00 0.00 0.00
0.00 0.00 0.00 0.00 0.00 0.00 0.00 0.00 0.00 0.00 0.00 0.00 0.01 0.02 0.01 0.01 0.01 0.02 0.03 0.03 0.02 0.01 0.01 0.00 0.00 0.00 0.00 0.00 0.00 0.00 0.00 0.00 0.00 0.00 0.00 0.00 0.00 0.00 0.00 0.00 0.00 0.00 0.00
0.00 0.00 0.00 0.00 0.00 0.00 0.00 0.00 0.00 0.00 0.00 0.01 0.01 0.00 0.00 0.00 0.00 0.01 0.01 0.00 0.00 0.00 0.00 0.00 0.00 0.00 0.00 0.00 0.00 0.00 0.00 0.00 0.00 0.00 0.00 0.00 0.00 0.00 0.00 0.00 0.00 0.00 0.00
0.00 0.00 0.00 0.00 0.00 0.00 0.00 0.00 0.00 0.00 0.00 0.00 0.00 0.00 0.00 0.00 0.00 0.00 0.00 0.00 0.00 0.00 0.00 0.00 0.00 0.00 0.00 0.00 0.00 0.00 0.00 0.00 0.00 0.00 0.00 0.00 0.00 0.00 0.00 0.00 0.00 0.00 0.00
0.00 0.00 0.00 0.00 0.00 0.00 0.00 0.00 0.00 0.00 0.00 0.00 0.00 0.00 0.00 0.00 0.00 0.00 0.00 0.00 0.00 0.00 0.00 0.00 0.00 0.00 0.00 0.00 0.00 0.00 0.00 0.00 0.00 0.00 0.00 0.00 0.00 0.00 0.00 0.00 0.00 0.00 0.00
MSLP
997.51 998.88 1000.47 1002.03 1003.25 1004.68 1006.35 1007.39 1008.20 1008.69 1009.11 1009.56 1010.02 1010.51 1010.87 1011.32 1011.66 1011.87 1012.03 1012.56 1012.42 1013.40 1014.42 1015.68 1016.13 1016.97 1017.41 1017.76 1018.54 1019.09 1019.53 1019.83 1019.90 1020.46 1021.13 1021.31 1021.38 1021.63 1021.77 1021.91 1022.18 1022.41 1022.76
996.72 998.34 1000.22 1002.02 1003.22 1004.57 1006.22 1007.29 1008.04 1008.53 1009.01 1009.48 1009.99 1010.39 1011.04 1011.74 1012.00 1012.46 1012.78 1012.78 1013.23 1014.17 1015.23 1016.25 1016.71 1017.28 1017.68 1018.17 1018.53 1018.88 1019.39 1019.77 1019.72 1020.37 1020.93 1021.61 1021.86 1021.58 1021.62 1021.74 1022.05 1022.26 1022.39
995.89 997.66 999.77 1001.69 1003.25 1004.46 1005.88 1006.96 1007.68 1008.18 1008.86 1009.49 1010.15 1010.65 1011.28 1012.13 1012.49 1013.18 1013.51 1014.14 1014.42 1015.19 1015.76 1016.22 1016.78 1017.41 1017.92 1018.40 1018.36 1018.77 1019.11 1019.59 1019.76 1019.93 1020.42 1020.95 1021.21 1021.39 1021.62 1021.76 1021.78 1021.95 1022.10
995.08 996.84 998.99 1001.14 1002.92 1004.07 1005.48 1006.62 1007.42 1007.87 1008.68 1009.42 1010.06 1010.40 1010.59 1011.34 1012.33 1012.85 1013.37 1013.79 1014.44 1015.01 1015.56 1016.24 1016.76 1017.08 1017.35 1017.77 1018.25 1018.50 1018.89 1019.33 1019.74 1020.11 1020.15 1020.44 1020.48 1021.17 1021.51 1021.54 1021.52 1021.53 1021.70
994.69 996.13 998.07 1000.27 1002.37 1003.71 1004.96 1006.15 1007.12 1007.58 1008.31 1009.17 1009.80 1010.43 1011.10 1011.59 1012.26 1012.90 1013.25 1013.61 1014.18 1014.74 1015.00 1015.34 1015.87 1016.55 1016.85 1017.49 1017.88 1018.12 1018.53 1018.69 1019.45 1019.89 1019.89 1020.15 1020.28 1020.62 1021.17 1021.34 1021.30 1021.32 1021.05
993.98 995.35 997.08 999.40 1001.45 1003.00 1004.31 1005.67 1006.68 1007.28 1007.98 1008.83 1009.54 1010.10 1010.69 1011.34 1012.21 1012.77 1013.20 1013.57 1014.04 1014.56 1014.87 1014.99 1015.36 1015.94 1016.56 1017.21 1017.35 1017.59 1017.96 1018.45 1018.67 1018.95 1019.11 1019.38 1019.80 1020.10 1020.42 1020.75 1020.69 1020.69 1020.51
993.26 994.64 996.56 998.50 1000.38 1002.07 1003.53 1005.07 1006.03 1006.88 1007.56 1008.34 1009.06 1009.66 1010.25 1010.81 1011.45 1012.07 1012.47 1013.05 1013.55 1014.02 1014.32 1014.69 1015.15 1015.87 1015.99 1015.98 1016.50 1016.93 1017.80 1018.00 1018.08 1018.34 1018.65 1018.67 1018.97 1019.13 1019.46 1019.82 1020.01 1020.30 1020.16
992.92 994.07 995.66 997.49 999.48 1001.22 1002.76 1004.33 1005.18 1006.18 1007.00 1007.74 1008.48 1009.18 1009.87 1010.46 1011.03 1011.47 1011.81 1012.31 1012.67 1013.20 1013.92 1014.35 1014.75 1015.20 1015.28 1015.36 1015.90 1016.53 1016.93 1017.45 1017.58 1017.81 1017.99 1018.24 1018.39 1018.59 1018.79 1019.06 1019.67 1020.06 1020.04
992.77 993.64 994.94 996.57 998.47 1000.35 1001.85 1003.47 1004.54 1005.49 1006.47 1007.19 1007.90 1008.52 1009.21 1009.97 1010.42 1011.05 1011.47 1012.06 1012.60 1013.21 1013.70 1014.08 1014.61 1014.82 1014.88 1015.24 1015.61 1015.96 1016.38 1016.71 1016.88 1017.16 1017.49 1017.61 1017.75 1018.02 1018.04 1018.31 1018.64 1019.21 1019.59
992.10 992.88 994.10 995.85 997.49 999.48 1001.16 1002.79 1004.08 1004.67 1005.65 1006.51 1007.20 1007.80 1008.42 1009.17 1009.77 1010.33 1010.91 1011.54 1012.11 1012.70 1013.14 1013.56 1013.77 1014.03 1014.53 1014.76 1015.13 1015.51 1015.73 1016.04 1016.24 1016.46 1016.68 1016.78 1017.00 1017.31 1017.47 1017.65 1017.96 1018.25 1018.49
991.83 992.27 993.47 995.20 996.80 998.65 1000.35 1001.88 1003.18 1003.98 1004.69 1005.73 1006.41 1007.03 1007.67 1008.39 1009.09 1009.47 1010.11 1010.72 1011.32 1011.81 1012.32 1012.66 1013.02 1013.44 1013.93 1014.11 1014.46 1014.78 1015.02 1015.23 1015.44 1015.62 1015.95 1016.15 1016.28 1016.56 1016.69 1016.74 1016.89 1017.41 1017.64
991.98 991.89 992.88 994.57 996.06 997.78 999.44 1000.84 1001.92 1002.90 1003.64 1004.47 1005.60 1006.38 1007.11 1007.66 1008.23 1008.69 1009.20 1009.91 1010.48 1010.92 1011.48 1011.94 1012.33 1012.67 1012.95 1013.40 1013.81 1014.14 1014.31 1014.54 1014.88 1014.89 1015.23 1015.34 1015.55 1015.86 1015.86 1015.99 1016.39 1016.67 1016.86
992.29 992.00 992.72 993.89 995.38 997.02 998.40 999.73 1000.78 1001.54 1002.74 1003.70 1004.34 1005.21 1005.80 1006.42 1006.98 1007.57 1008.33 1008.99 1009.54 1010.00 1010.58 1011.09 1011.32 1011.51 1011.93 1012.51 1012.88 1013.24 1013.56 1013.80 1013.98 1014.17 1014.44 1014.53 1014.86 1015.14 1015.17 1015.46 1015.84 1016.15 1016.52
992.59 992.63 992.89 993.60 994.77 996.07 997.49 998.69 999.85 1000.89 1001.55 1002.64 1003.64 1004.21 1004.86 1005.39 1005.93 1006.51 1007.19 1007.82 1008.52 1008.96 1009.56 1009.94 1010.27 1010.79 1011.18 1011.65 1012.00 1012.31 1012.71 1013.01 1013.17 1013.40 1013.62 1013.89 1014.22 1014.58 1014.84 1015.09 1015.23 1015.63 1015.99
992.58 992.68 993.19 993.65 994.30 995.33 996.57 997.74 998.96 999.95 1000.80 1001.39 1002.12 1002.81 1003.77 1004.54 1005.28 1005.86 1006.38 1006.90 1007.43 1008.02 1008.57 1009.06 1009.47 1009.93 1010.45 1010.82 1011.28 1011.51 1011.85 1012.17 1012.48 1012.69 1013.14 1013.92 1014.22 1014.37 1014.55 1014.69 1014.99 1015.38 1016.08
992.58 992.72 993.05 993.56 994.03 994.64 995.63 996.74 997.87 999.05 999.98 1000.51 1000.87 1001.73 1002.61 1003.54 1004.25 1004.80 1005.38 1006.00 1006.49 1007.06 1007.64 1008.05 1008.58 1009.14 1009.56 1009.96 1010.32 1010.72 1011.22 1011.60 1012.18 1013.23 1014.32 1014.74 1015.01 1015.24 1015.36 1015.56 1015.97 1016.47 1016.74
993.02 993.50 993.92 994.07 994.08 994.37 994.93 995.70 996.67 997.83 998.78 999.63 1000.33 1000.90 1001.56 1002.11 1002.78 1003.78 1004.42 1004.90 1005.47 1006.15 1006.87 1007.45 1007.96 1008.49 1009.06 1009.81 1009.94 1010.32 1011.08 1012.04 1012.99 1013.81 1014.70 1015.42 1015.81 1016.00 1016.37 1016.76 1017.43 1017.72 1018.12
993.90 994.36 994.90 995.24 995.17 994.86 994.64 994.97 995.73 996.72 997.70 998.47 999.22 1000.07 1000.81 1001.52 1002.24 1002.81 1003.50 1004.23 1004.88 1005.47 1006.28 1006.98 1007.46 1008.78 1010.05 1010.15 1010.50 1011.09 1012.13 1013.25 1013.97 1014.47 1015.25 1015.62 1016.25 1016.68 1017.15 1017.71 1018.24 1018.77 1019.32
995.29 995.72 996.13 996.40 996.49 995.79 995.15 994.91 995.28 996.01 996.93 997.68 998.40 999.15 1000.05 1000.97 1001.91 1002.51 1003.15 1004.04 1004.85 1005.64 1006.41 1007.47 1008.40 1009.45 1010.80 1011.11 1011.21 1011.81 1013.05 1014.27 1014.77 1015.42 1015.78 1016.22 1016.98 1017.67 1017.91 1018.17 1018.70 1019.57 1019.62
996.89 997.23 997.27 997.23 997.03 996.62 995.99 995.50 995.55 995.77 996.04 996.91 997.84 998.66 999.55 1000.46 1001.38 1002.30 1003.23 1004.41 1005.20 1006.60 1007.84 1009.13 1010.22 1010.92 1011.46 1011.95 1011.78 1012.54 1013.62 1014.49 1015.56 1016.54 1017.07 1017.44 1017.82 1018.33 1018.53 1018.76 1019.10 1019.80 1019.99
998.26 998.76 998.93 998.95 999.03 998.33 997.48 996.91 996.92 996.46 995.40 996.73 998.09 999.08 999.68 1000.67 1002.09 1003.38 1004.62 1005.65 1006.86 1008.15 1009.32 1010.26 1011.62 1012.22 1012.60 1013.09 1013.46 1013.59 1014.30 1015.08 1016.01 1017.16 1017.89 1018.43 1018.74 1018.95 1019.39 1019.56 1019.94 1020.29 1020.38
999.75 1000.40 1000.66 1001.04 1000.97 1000.24 999.26 999.27 999.56 999.69 999.44 997.62 1000.17 1001.00 1001.74 1002.29 1002.80 1004.12 1006.01 1007.12 1008.30 1009.45 1010.51 1011.43 1012.65 1013.67 1014.09 1014.32 1014.62 1015.01 1015.29 1016.09 1016.81 1018.06 1018.96 1019.51 1019.84 1020.14 1020.02 1020.18 1020.51 1020.64 1020.93
1002.24 1002.44 1002.86 1003.08 1003.02 1002.70 1001.98 1001.64 1002.00 1001.64 1001.81 1000.80 1001.18 1002.60 1003.52 1004.06 1005.49 1004.98 1006.55 1007.56 1009.02 1010.10 1011.46 1012.20 1013.17 1014.19 1015.48 1015.95 1016.25 1016.42 1016.89 1016.99 1017.29 1018.54 1019.48 1020.23 1020.83 1020.99 1021.11 1021.09 1020.96 1021.36 1021.61
1004.13 1004.40 1004.65 1005.02 1005.02 1004.79 1004.55 1004.28 1004.12 1003.82 1003.43 1003.73 1004.52 1004.35 1004.05 1006.16 1007.03 1006.57 1007.91 1008.87 1009.13 1010.86 1011.56 1012.41 1013.88 1014.91 1015.37 1016.33 1017.21 1017.35 1018.16 1018.55 1019.02 1019.21 1019.88 1020.38 1020.82 1021.31 1021.34 1021.32 1021.77 1022.21 1022.42
1006.29 1006.34 1006.34 1006.61 1006.55 1006.31 1006.12 1005.94 1005.76 1006.07 1005.38 1005.93 1006.25 1006.20 1006.71 1007.80 1008.55 1008.96 1009.58 1010.45 1011.08 1011.57 1012.62 1012.92 1013.94 1014.43 1016.01 1016.61 1016.97 1017.10 1018.05 1019.07 1019.43 1019.70 1019.92 1020.71 1021.13 1021.34 1021.80 1022.28 1022.51 1022.84 1023.11
1008.49 1007.92 1008.07 1008.18 1007.90 1007.33 1006.70 1006.50 1006.84 1007.36 1007.48 1007.43 1008.26 1008.79 1008.91 1009.35 1010.19 1010.95 1011.68 1013.04 1013.52 1014.17 1015.22 1014.21 1014.62 1016.09 1016.01 1017.13 1017.78 1018.43 1018.78 1019.21 1019.60 1019.98 1020.78 1021.42 1021.92 1022.27 1022.57 1022.96 1023.34 1023.65 1023.90
Thickness
5721 5716 5702 5688 5678 5667 5651 5642 5636 5630 5625 5620 5616 5612 5610 5609 5607 5608 5607 5607 5609 5605 5601 5595 5593 5590 5589 5590 5588 5585 5583 5584 5588 5586 5584 5585 5587 5587 5589 5587 5587 5586 5584
5720 5711 5698 5683 5674 5664 5649 5640 5634 5628 5621 5615 5611 5608 5605 5601 5600 5597 5598 5601 5599 5595 5590 5586 5585 5584 5583 5584 5583 5581 5579 5579 5585 5580 5578 5571 5574 5581 5585 5585 5585 5583 5583
5718 5710 5695 5680 5670 5661 5650 5641 5635 5629 5619 5612 5606 5604 5602 5596 5593 5586 5586 5583 5584 5581 5579 5581 5578 5577 5578 5576 5580 5577 5578 5575 5578 5580 5577 5573 5571 5575 5580 5580 5582 5583 5583
5725 5714 5698 5680 5668 5662 5651 5641 5634 5629 5620 5612 5606 5603 5603 5598 5591 5586 5584 5584 5580 5577 5576 5574 5573 5573 5573 5574 5574 5576 5576 5576 5574 5575 5578 5579 5582 5572 5573 5578 5580 5582 5581
5725 5714 5701 5685 5671 5661 5653 5642 5634 5629 5621 5612 5606 5599 5595 5593 5588 5584 5583 5583 5579 5575 5577 5577 5577 5575 5575 5572 5574 5576 5576 5578 5574 5572 5577 5578 5579 5578 5574 5573 5576 5578 5580
5725 5718 5708 5691 5675 5665 5655 5644 5635 5629 5622 5613 5605 5598 5594 5592 5585 5582 5581 5580 5579 5578 5577 5579 5580 5577 5575 5572 5576 5577 5576 5576 5579 5579 5580 5580 5577 5576 5576 5574 5575 5576 5581
5724 5717 5704 5691 5679 5668 5658 5646 5638 5629 5624 5616 5609 5600 5595 5593 5590 5587 5586 5583 5582 5580 5580 5580 5579 5574 5576 5578 5578 5578 5574 5578 5581 5581 5580 5583 5583 5583 5581 5579 5576 5573 5575
5723 5717 5707 5696 5684 5672 5661 5649 5643 5633 5627 5620 5614 5607 5601 5594 5592 5590 5590 5587 5587 5584 5580 5579 5580 5576 5576 5581 5581 5580 5580 5580 5581 5582 5583 5582 5582 5581 5581 5578 5573 5568 5568
5718 5716 5708 5701 5689 5676 5666 5653 5646 5638 5629 5624 5618 5613 5608 5603 5600 5596 5593 5589 5586 5584 5581 5580 5577 5577 5582 5582 5584 5583 5582 5582 5584 5582 5580 5582 5583 5581 5582 5580 5577 5571 5566
5719 5717 5711 5703 5694 5681 5668 5656 5648 5644 5636 5630 5624 5619 5615 5610 5606 5601 5597 5592 5589 5585 5584 5581 5582 5584 5584 5583 5583 5583 5584 5583 5583 5583 5584 5585 5585 5582 5581 5580 5576 5571 5566
5716 5715 5712 5703 5695 5684 5671 5660 5651 5647 5642 5635 5630 5625 5620 5616 5611 5609 5604 5600 5597 5593 5590 5588 5588 5588 5586 5586 5584 5584 5585 5585 5585 5587 5584 5584 5584 5582 5579 5579 5576 5570 5566
5710 5714 5712 5701 5694 5685 5675 5665 5658 5652 5648 5642 5634 5629 5624 5620 5616 5613 5610 5605 5602 5600 5595 5593 5592 5591 5590 5587 5585 5584 5586 5586 5584 5585 5583 5583 5580 5576 5578 5575 5571 5566 5563
5701 5709 5706 5700 5693 5684 5677 5670 5664 5660 5652 5646 5642 5635 5631 5627 5623 5619 5614 5610 5607 5605 5601 5597 5596 5595 5593 5589 5588 5587 5586 5584 5584 5583 5580 5579 5576 5574 5574 5570 5566 5562 5557
5693 5696 5698 5696 5692 5686 5679 5673 5666 5661 5658 5649 5643 5640 5635 5631 5627 5623 5619 5615 5611 5608 5604 5602 5600 5596 5594 5590 5589 5587 5585 5583 5582 5581 5579 5576 5574 5571 5568 5565 5562 5556 5551
5684 5687 5688 5690 5689 5685 5680 5675 5668 5662 5658 5655 5651 5645 5639 5634 5628 5623 5619 5616 5613 5608 5605 5602 5600 5597 5593 5591 5588 5586 5583 5581 5580 5578 5575 5567 5563 5561 5560 5558 5555 5548 5540
5680 5683 5684 5684 5685 5683 5680 5676 5670 5663 5657 5654 5654 5649 5643 5636 5630 5627 5621 5616 5613 5609 5604 5602 5599 5595 5592 5589 5586 5584 5581 5579 5575 5564 5555 5551 5549 5545 5542 5538 5532 5526 5522
5673 5666 5668 5674 5678 5679 5678 5675 5672 5666 5660 5655 5650 5648 5644 5640 5636 5628 5624 5620 5615 5610 5605 5600 5597 5594 5591 5583 5581 5577 5574 5566 5558 5551 5544 5537 5532 5529 5524 5518 5510 5504 5497
5654 5657 5658 5658 5662 5668 5674 5675 5671 5665 5661 5656 5652 5647 5643 5638 5633 5629 5624 5620 5616 5612 5606 5601 5595 5583 5573 5572 5570 5565 5556 5547 5541 5536 5529 5524 5517 5512 5506 5499 5491 5484 5477
5636 5641 5642 5642 5644 5652 5661 5666 5666 5662 5658 5655 5651 5648 5641 5634 5628 5625 5621 5615 5610 5605 5596 5585 5576 5567 5558 5557 5557 5553 5542 5530 5525 5518 5513 5508 5500 5493 5488 5482 5474 5464 5460
5623 5622 5626 5629 5632 5639 5647 5654 5656 5657 5656 5652 5649 5644 5639 5632 5627 5621 5615 5603 5594 5580 5570 5560 5553 5548 5543 5540 5543 5536 5525 5517 5507 5497 5491 5487 5481 5475 5470 5464 5458 5449 5443
5602 5603 5605 5607 5608 5615 5626 5634 5635 5643 5655 5644 5636 5629 5627 5620 5609 5599 5588 5580 5569 5559 5551 5544 5533 5529 5525 5521 5519 5517 5509 5501 5492 5481 5473 5466 5461 5456 5448 5442 5435 5429 5422
5583 5581 5580 5577 5580 5591 5602 5602 5600 5602 5608 5625 5603 5599 5595 5592 5591 5579 5565 5557 5549 5541 5533 5526 5517 5508 5503 5501 5498 5494 5490 5482 5474 5461 5451 5443 5437 5431 5428 5421 5415 5409 5401
5552 5553 5550 5549 5552 5557 5566 5571 5568 5574 5574 5584 5584 5574 5567 5564 5556 5563 5552 5543 5532 5525 5515 5509 5501 5492 5481 5476 5473 5470 5465 5461 5455 5442 5431 5422 5413 5407 5402 5397 5392 5383 5375
5526 5527 5527 5523 5524 5529 5532 5536 5540 5544 5548 5548 5543 5546 5552 5535 5531 5538 5527 5521 5519 5505 5502 5495 5483 5473 5468 5458 5451 5447 5437 5432 5426 5420 5410 5403 5396 5386 5382 5376 5366 5355 5347
5502 5502 5504 5502 5503 5506 5508 5511 5515 5514 5521 5518 5517 5519 5515 5508 5504 5504 5501 5495 5490 5488 5480 5478 5470 5465 5451 5443 5435 5432 5423 5411 5406 5399 5394 5383 5374 5367 5357 5348 5340 5333 5325
5476 5484 5484 5482 5483 5488 5496 5498 5496 5493 5493 5494 5490 5487 5488 5485 5480 5476 5472 5462 5458 5453 5446 5452 5448 5435 5435 5422 5413 5404 5400 5394 5387 5379 5368 5357 5347 5340 5333 5324 5315 5307 5299